[[{"header":{"parameterUnit":"m.s-1","parameterCategory":1,"la1":30.2991,"la2":30.254,"lo1":-89.0895,"lo2":-89.0444,"dy":0.0017,"dx":0.0017,"nx":28,"ny":28,"refTime":"2024-06-09T21:00:00:Z","depth":0,"parameterNumber":2,"parameterNumberName":"U-component_of_WINDS"},"data":[0,0,0,0,0,0,0,0,0,0,0,0,0,0,0,0,0,0,0,0,0,0,0,0,0,0,0,0,0,0,0,0,0,0,0,0,0,0,0,0,0,0,0,0,0,0,0,0,0,0,0,0,0,0,0,0,0,0,1.8368,1.837,0,1.8543,1.8545,1.8547,1.8606,1.8606,1.8605,1.8604,1.8786,1.8791,1.8797,0,0,0,0,0,0,0,0,0,0,0,0,0,1.8084,1.8089,1.8367,1.837,1.8372,1.8543,1.8546,1.8548,1.8606,1.8606,1.8605,1.8604,1.8784,1.879,1.8797,0,0,0,0,0,0,0,0,0,0,0,0,0,1.8228,1.809,1.8367,1.8422,1.8428,1.8543,1.8546,1.8549,1.8607,1.8606,1.8604,1.8603,1.8782,1.879,1.8798,1.8871,0,0,1.8823,1.8827,0,0,0,0,0,0,0,0,1.822,1.8238,1.8411,1.8418,1.8426,1.8552,1.8512,1.8657,1.8607,1.8539,1.8604,1.8603,1.8709,1.8723,1.8759,1.888,1.8888,1.8824,1.8829,1.8833,1.8835,0,0,0,0,0,0,0,1.821,1.8231,1.8437,1.8414,1.8423,1.8438,1.8457,1.854,1.8628,1.8545,1.8549,1.8569,1.8713,1.875,1.8763,1.889,1.8824,1.8831,1.8836,1.8839,1.908,1.9082,0,0,0,0,0,0,1.819,1.8222,1.8432,1.8442,1.8318,1.8444,1.8465,1.8512,1.8627,1.8644,1.857,1.8571,1.8737,1.8753,1.877,1.8863,1.8833,1.884,1.8845,1.9079,1.9081,1.9082,0,0,0,0,0,0,1.8184,1.8208,1.8425,1.8334,1.8362,1.845,1.8502,1.8517,1.8554,1.8646,1.8663,1.8592,1.8737,1.8758,1.8845,1.887,1.8844,1.8852,1.9077,1.9079,1.9081,1.9049,0,0,0,0,0,0,1.8175,1.8206,1.8234,1.8334,1.8367,1.8497,1.8504,1.8521,1.8568,1.8572,1.8672,1.8687,1.8737,1.8833,1.8854,1.8881,1.8858,1.9075,1.9078,1.9081,1.9049,1.905,1.9052,0,0,0,0,0,1.8165,1.8218,1.8235,1.826,1.8404,1.8498,1.8517,1.8573,1.857,1.8599,1.8659,1.8684,1.8864,1.8841,1.8865,1.8895,1.9074,1.9077,1.908,1.9048,1.905,1.9051,0,0,0,0,0,0,1.8119,1.8232,1.8252,1.8339,1.8408,1.8508,1.8546,1.8573,1.8645,1.8645,1.8713,1.8735,1.8817,1.8865,1.8838,1.8972,1.897,1.8979,1.8937,1.894,1.8941,1.8928,1.8865,0,0,0,0,0,1.8119,1.8186,1.8281,1.8349,1.8382,1.8458,1.8501,1.8538,1.8613,1.8643,1.8708,1.878,1.8853,1.8899,1.8971,1.9056,1.9079,1.9089,1.909,1.9091,1.9097,1.9145,1.9151,1.9093,1.9093,1.9093,0,0,1.812,1.819,1.8228,1.8341,1.8399,1.8466,1.8482,1.8553,1.8604,1.8654,1.874,1.879,1.8875,1.8961,1.9002,1.9004,1.9118,1.9095,1.9095,1.9101,1.9149,1.9154,1.9159,1.9095,1.9094,1.9094,0,0,1.8156,1.8216,1.8278,1.8336,1.8423,1.8474,1.8488,1.8584,1.8619,1.8707,1.8745,1.8807,1.8931,1.8989,1.9035,1.9093,1.9119,1.9115,1.9122,1.9168,1.9173,1.9177,1.9197,1.9204,1.9121,1.9121,1.9121,0,1.8146,1.8248,1.8307,1.8376,1.8425,1.8472,1.8537,1.859,1.8696,1.8729,1.8729,1.8886,1.8946,1.9046,1.906,1.9096,1.9115,1.9103,1.9167,1.9172,1.9177,1.9197,1.9205,1.9119,1.912,1.912,1.912,0,1.8232,1.8302,1.8343,1.8444,1.8497,1.8563,1.8632,1.8679,1.8712,1.8762,1.885,1.8924,1.9012,1.9039,1.9072,1.9144,1.9142,1.9154,1.9153,1.9181,1.92,1.9209,1.9118,1.9118,1.9119,1.9119,0,0,1.8243,1.8376,1.8389,1.8436,1.8536,1.8592,1.866,1.8746,1.8784,1.8856,1.8915,1.9019,1.903,1.9082,1.9123,1.9163,1.9204,1.917,1.9173,1.9173,1.9287,1.9277,1.9285,1.9222,1.9223,1.9225,1.928,0,1.8291,1.8415,1.847,1.8568,1.8634,1.8681,1.874,1.8808,1.8857,1.892,1.8975,1.9047,1.9057,1.9088,1.9131,1.919,1.9227,1.9187,1.9277,1.928,1.9254,1.9296,1.9286,1.9334,1.9288,1.929,1.9291,0,1.8364,1.8435,1.854,1.8632,1.8662,1.8715,1.8797,1.8857,1.8935,1.8968,1.9026,1.9064,1.9138,1.9132,1.9235,1.9206,1.9246,1.9281,1.9284,1.9294,1.9286,1.9307,1.9351,1.9358,1.9304,1.9303,1.9302,0,1.836,1.8483,1.8562,1.8601,1.871,1.8746,1.8793,1.887,1.8918,1.899,1.9022,1.9102,1.9146,1.9207,1.9266,1.9257,1.9363,1.9362,1.9392,1.939,1.9412,1.941,1.9463,1.9439,1.9438,1.9438,1.9438,0,1.8408,1.847,1.8562,1.8611,1.8682,1.8745,1.8814,1.8865,1.8933,1.8992,1.9038,1.9092,1.9167,1.9231,1.9278,1.9355,1.9375,1.9403,1.9415,1.9399,1.9395,1.9426,1.9424,1.944,1.944,1.9439,1.9439,0,1.8416,1.848,1.8569,1.8666,1.8691,1.874,1.8822,1.8871,1.8922,1.8997,1.9018,1.9098,1.9176,1.9241,1.9343,1.9375,1.9455,1.9469,1.9428,1.9434,1.946,1.9456,1.9535,1.9548,1.9515,1.9515,1.9515,0,1.8442,1.8491,1.8593,1.8636,1.8682,1.8751,1.88,1.8864,1.8913,1.9005,1.9043,1.9124,1.9192,1.9315,1.9382,1.9461,1.9477,1.9499,1.9489,1.9471,1.9476,1.9472,1.9477,1.9499,1.9499,1.9499,1.9499,0,1.8481,1.851,1.8579,1.8659,1.8716,1.8782,1.8849,1.8881,1.8958,1.9011,1.9091,1.9143,1.9248,1.9328,1.9413,1.9463,1.9494,1.9502,1.9513,1.9497,1.9471,1.9485,1.943,1.9499,1.9499,1.9499,1.9499,1.9499,1.8499,1.8545,1.8623,1.8698,1.8755,1.8817,1.8867,1.8925,1.8992,1.9082,1.9116,1.9198,1.9275,1.9393,1.9443,1.9508,1.9512,1.9527,1.9531,1.9534,1.9532,1.9461,1.9524,1.9524,1.9524,1.9524,1.9524,0,1.854,1.8593,1.8661,1.8753,1.8812,1.8836,1.8912,1.8959,1.9031,1.91,1.9166,1.9258,1.9335,1.9409,1.949,1.9528,1.9544,1.9547,1.9545,1.9556,1.9524,1.9506,1.9533,1.9533,1.9533,1.9533,1.9533,1.9533,1.8568,1.8646,1.8685,1.8792,1.8845,1.8925,1.8966,1.9023,1.9079,1.9179,1.9244,1.9291,1.9362,1.9449,1.9521,1.9541,1.9569,1.9568,1.9591,1.956,1.9558,1.9556,1.954,1.9573,1.9574,1.9618,1.9618,1.9618]},{"header":{"parameterUnit":"m.s-1","parameterCategory":1,"la1":30.2991,"la2":30.254,"lo1":-89.0895,"lo2":-89.0444,"dy":0.0017,"dx":0.0017,"nx":28,"ny":28,"refTime":"2024-06-09T21:00:00:Z","depth":0,"parameterNumber":3,"parameterNumberName":"V-component_of_WINDS"},"data":[0,0,0,0,0,0,0,0,0,0,0,0,0,0,0,0,0,0,0,0,0,0,0,0,0,0,0,0,0,0,0,0,0,0,0,0,0,0,0,0,0,0,0,0,0,0,0,0,0,0,0,0,0,0,0,0,0,0,4.3239,4.3239,0,4.3225,4.3225,4.3225,4.3225,4.3225,4.3226,4.3226,4.321,4.3209,4.3208,0,0,0,0,0,0,0,0,0,0,0,0,0,4.3262,4.3261,4.3239,4.3239,4.3238,4.3225,4.3225,4.3225,4.3225,4.3225,4.3226,4.3226,4.321,4.3209,4.3208,0,0,0,0,0,0,0,0,0,0,0,0,0,4.325,4.3261,4.3239,4.3237,4.3237,4.3225,4.3225,4.3225,4.3225,4.3225,4.3226,4.3226,4.321,4.3209,4.3208,4.3197,0,0,4.3205,4.3205,0,0,0,0,0,0,0,0,4.3251,4.3249,4.3237,4.3237,4.3237,4.3227,4.3227,4.3215,4.3225,4.3229,4.3226,4.3226,4.3215,4.3214,4.3211,4.3196,4.3196,4.3205,4.3205,4.3204,4.3204,0,0,0,0,0,0,0,4.3252,4.325,4.3233,4.3237,4.3237,4.3236,4.3235,4.3225,4.3221,4.3229,4.3229,4.3228,4.3215,4.3211,4.321,4.3195,4.3205,4.3205,4.3204,4.3204,4.317,4.3169,0,0,0,0,0,0,4.3253,4.3251,4.3234,4.3233,4.3245,4.3235,4.3234,4.323,4.3221,4.322,4.3227,4.3228,4.3213,4.3211,4.321,4.3195,4.3204,4.3204,4.3203,4.317,4.317,4.3169,0,0,0,0,0,0,4.3254,4.3252,4.3234,4.3242,4.324,4.3235,4.323,4.323,4.3226,4.322,4.3219,4.3225,4.3213,4.3211,4.32,4.3195,4.3203,4.3202,4.317,4.317,4.3169,4.3166,0,0,0,0,0,0,4.3254,4.3252,4.3248,4.3242,4.3239,4.3226,4.323,4.3229,4.3225,4.3225,4.3217,4.3216,4.3213,4.3201,4.3199,4.3193,4.3202,4.3171,4.317,4.317,4.3167,4.3166,4.3165,0,0,0,0,0,4.3255,4.3248,4.3248,4.3246,4.3235,4.3226,4.3224,4.3222,4.3224,4.322,4.3216,4.3216,4.3196,4.32,4.3198,4.3192,4.3171,4.317,4.317,4.3167,4.3166,4.3165,0,0,0,0,0,0,4.3253,4.3247,4.3247,4.3238,4.3232,4.3226,4.322,4.322,4.3214,4.3214,4.3211,4.3209,4.3198,4.3194,4.3199,4.318,4.3184,4.3182,4.3183,4.3181,4.318,4.3181,4.3201,0,0,0,0,0,4.3252,4.3246,4.324,4.3232,4.3229,4.3225,4.3221,4.322,4.3214,4.3211,4.3206,4.32,4.3192,4.3186,4.3179,4.3166,4.3164,4.3161,4.316,4.3159,4.3158,4.315,4.3148,4.3167,4.3167,4.3167,0,0,4.3248,4.3244,4.324,4.3231,4.3227,4.322,4.3223,4.3216,4.321,4.321,4.3199,4.3195,4.3188,4.3176,4.317,4.3172,4.3152,4.3158,4.3157,4.3156,4.3149,4.3147,4.3145,4.3166,4.3166,4.3166,0,0,4.3238,4.3235,4.3228,4.3223,4.3217,4.3214,4.3212,4.3206,4.3203,4.3193,4.3192,4.3185,4.3171,4.3166,4.3161,4.3148,4.3147,4.3146,4.314,4.3132,4.3131,4.3129,4.3124,4.3122,4.3144,4.3144,4.3144,0,4.3235,4.3225,4.3223,4.3216,4.3211,4.3212,4.3203,4.3199,4.319,4.3186,4.3189,4.3171,4.3166,4.3152,4.3149,4.3146,4.3143,4.3146,4.3131,4.313,4.3129,4.3123,4.3121,4.3144,4.3144,4.3144,4.3144,0,4.322,4.3213,4.3208,4.32,4.3195,4.3187,4.3183,4.3178,4.3177,4.3174,4.3163,4.3156,4.3147,4.3144,4.3143,4.313,4.3131,4.3132,4.3136,4.3127,4.3121,4.3119,4.3144,4.3144,4.3144,4.3144,0,0,4.3208,4.32,4.3198,4.3194,4.3187,4.3181,4.3172,4.3164,4.3159,4.3153,4.3145,4.3133,4.3134,4.3129,4.3127,4.312,4.3109,4.3122,4.3122,4.3119,4.3093,4.3092,4.3089,4.3109,4.3109,4.3108,4.3093,0,4.3197,4.3183,4.3182,4.3169,4.3162,4.3162,4.3154,4.3148,4.3145,4.3137,4.3133,4.3124,4.3127,4.3124,4.3117,4.3112,4.3104,4.3113,4.31,4.31,4.3102,4.3087,4.3085,4.3072,4.3092,4.3091,4.3091,0,4.3182,4.3176,4.3163,4.3156,4.3153,4.3146,4.3138,4.3132,4.3124,4.3122,4.3116,4.3114,4.3104,4.3109,4.3094,4.3101,4.3095,4.3092,4.3091,4.3089,4.3094,4.3084,4.3068,4.3065,4.3088,4.3088,4.3088,0,4.3174,4.3162,4.3153,4.315,4.3142,4.3137,4.3133,4.3126,4.3121,4.3113,4.311,4.3101,4.3095,4.3088,4.3083,4.3087,4.3069,4.3073,4.3065,4.3065,4.3061,4.3061,4.3043,4.3059,4.3059,4.3059,4.3059,0,4.3161,4.3153,4.3149,4.3143,4.3133,4.3131,4.3121,4.3117,4.3111,4.3103,4.3102,4.3095,4.309,4.3081,4.3078,4.3065,4.3063,4.306,4.3059,4.306,4.306,4.3056,4.3056,4.3058,4.3058,4.3059,4.3059,0,4.315,4.3148,4.3137,4.313,4.3128,4.3121,4.3115,4.3108,4.3105,4.3095,4.3093,4.3087,4.3076,4.3072,4.3059,4.3056,4.3042,4.3042,4.3045,4.3044,4.3037,4.3037,4.3014,4.3011,4.3029,4.3029,4.3029,0,4.3142,4.3136,4.3129,4.3124,4.312,4.3112,4.3107,4.3104,4.3099,4.309,4.3084,4.3074,4.3066,4.3049,4.3043,4.3033,4.3032,4.3024,4.303,4.3031,4.3031,4.3031,4.303,4.3023,4.3023,4.3023,4.3023,0,4.3127,4.3126,4.3119,4.3112,4.3106,4.3099,4.3093,4.3089,4.3085,4.3078,4.3068,4.3062,4.3049,4.3038,4.3028,4.3022,4.3021,4.3021,4.3019,4.3019,4.3021,4.3019,4.3041,4.3022,4.3022,4.3022,4.3022,4.3022,4.3117,4.3111,4.3105,4.3097,4.3092,4.3086,4.3079,4.3075,4.3067,4.3057,4.3056,4.3045,4.3036,4.3022,4.3016,4.3007,4.3008,4.3005,4.3004,4.3003,4.3002,4.3023,4.3005,4.3005,4.3005,4.3005,4.3005,0,4.3102,4.3098,4.3091,4.3082,4.3075,4.3076,4.3069,4.3063,4.3054,4.3047,4.3039,4.3027,4.3016,4.3009,4.2998,4.2992,4.2991,4.2989,4.2989,4.2988,4.3002,4.3005,4.299,4.299,4.299,4.299,4.299,4.299,4.3093,4.3083,4.3081,4.3067,4.3063,4.3053,4.3049,4.3043,4.3037,4.3024,4.3016,4.3012,4.3004,4.2993,4.2983,4.2981,4.2976,4.2974,4.2972,4.2985,4.2987,4.2988,4.2991,4.2974,4.2974,4.2959,4.2958,4.2958]}]]